Latest Weather Observations for Parafield

IDS60801

Issued at 1:35 pm CST Saturday 30 August 2014 (issued every 30 minutes, with the page automatically refreshed every 10 minutes)

About weather observations | Map of weather stations | Latest weather observations for SA | Other Formats
Station Details ID: 023013 Name: PARAFIELD AIRPORT Lat: -34.80 Lon: 138.63 Height: 9.5 m
Data from the previous 72 hours. | See also: Recent months at Parafield
Date/Time
CST
Temp
°C
App
Temp
°C
Dew
Point
Rel
Hum
%
Delta-T
°C
Wind Press
QNH
hPa
Press
MSL
hPa
Rain
since 9 am
mm
Dir
 
Spd
km/h
Gust
km/h
Spd
kts
Gust
kts
30/01:30pm 24.3 18.1 4.1 27 9.9 NNW 26 52 14 28 1020.2 1020.3 0.0
30/01:00pm 24.6 19.1 3.8 26 10.2 N 22 32 12 17 1020.7 1020.8 0.0
30/12:30pm 24.2 18.4 4.6 28 9.7 NNW 24 35 13 19 1021.3 1021.4 0.0
30/12:00pm 23.7 20.0 6.5 33 8.8 N 15 24 8 13 1021.9 1021.9 0.0
30/11:30am 24.1 21.0 7.3 34 8.8 N 13 19 7 10 1022.4 1022.4 0.0
30/11:00am 23.1 19.8 8.0 38 8.0 N 15 19 8 10 1022.8 1022.8 0.0
30/10:30am 22.1 18.2 7.1 38 7.7 N 17 24 9 13 1023.0 1023.0 0.0
30/10:00am 21.0 19.8 9.6 48 6.1 NNE 6 11 3 6 1023.4 1023.4 0.0
30/09:30am 17.7 16.5 9.6 59 4.2 ENE 6 7 3 4 1023.7 1023.7 0.0
30/09:00am 15.2 13.5 7.5 60 3.8 NNW 6 9 3 5 1023.9 1023.9 0.0
30/08:30am 13.4 11.3 8.3 71 2.5 W 9 13 5 7 1023.7 1023.7 0.0
30/08:00am 10.7 9.8 7.6 81 1.5 NW 2 6 1 3 1023.5 1023.5 0.0
30/07:30am 7.4 6.0 5.5 88 0.8 ENE 2 6 1 3 1023.4 1023.4 0.0
30/07:00am 6.4 4.5 4.7 89 0.7 E 4 6 2 3 1023.4 1023.4 0.0
30/06:30am 6.6 4.3 4.6 87 0.9 E 6 6 3 3 1023.4 1023.4 0.0
30/06:00am 6.1 3.6 4.6 90 0.6 ENE 7 7 4 4 1023.4 1023.4 0.0
30/05:30am 6.3 5.1 4.5 88 0.8 CALM 0 0 0 0 1023.5 1023.5 0.0
30/05:00am 6.4 5.2 4.4 87 0.9 CALM 0 0 0 0 1023.5 1023.5 0.0
30/04:30am 7.0 4.6 4.5 84 1.1 ESE 6 7 3 4 1023.5 1023.5 0.0
30/04:00am 7.7 6.6 5.0 83 1.2 CALM 0 0 0 0 1023.6 1023.6 0.0
30/03:30am 7.7 6.6 5.0 83 1.2 CALM 0 0 0 0 1023.4 1023.4 0.0
30/03:00am 7.6 6.5 5.2 85 1.1 CALM 0 0 0 0 1023.4 1023.4 0.0
30/02:30am 8.4 5.5 4.6 77 1.7 NW 9 13 5 7 1023.5 1023.5 0.0
30/02:00am 8.3 6.0 5.8 84 1.1 WNW 7 9 4 5 1023.6 1023.6 0.0
30/01:30am 8.8 6.5 5.5 80 1.5 WNW 7 9 4 5 1023.9 1023.9 0.0
30/01:00am 10.9 8.7 6.1 72 2.2 NW 7 11 4 6 1024.2 1024.2 0.0
30/12:30am 11.8 10.8 5.7 66 2.8 CALM 0 2 0 1 1024.1 1024.1 0.0
30/12:00am 12.1 10.0 5.9 66 2.9 NNE 6 7 3 4 1024.3 1024.3 0.0
 
Date/Time
CST
Temp
°C
App
Temp
°C
Dew
Point
Rel
Hum
%
Delta-T
°C
Wind Press
QNH
hPa
Press
MSL
hPa
Rain
since 9 am
mm
Dir
 
Spd
km/h
Gust
km/h
Spd
kts
Gust
kts
29/11:30pm 12.6 10.6 6.4 66 2.9 NE 6 9 3 5 1024.5 1024.5 0.0
29/11:00pm 11.7 10.9 6.4 70 2.5 CALM 0 6 0 3 1024.5 1024.5 0.0
29/10:30pm 12.1 11.3 6.4 68 2.7 CALM 0 6 0 3 1024.9 1024.9 0.0
29/10:00pm 12.9 11.0 6.7 66 3.0 N 6 9 3 5 1025.1 1025.1 0.0
29/09:30pm 12.9 10.0 6.7 66 3.0 N 11 13 6 7 1025.2 1025.2 0.0
29/09:00pm 15.5 13.5 7.0 57 4.2 ENE 7 11 4 6 1025.3 1025.3 0.0
29/08:30pm 15.2 14.6 7.2 59 3.9 CALM 0 0 0 0 1025.1 1025.1 0.0
29/08:00pm 13.9 13.1 6.7 62 3.5 CALM 0 0 0 0 1025.0 1025.0 0.0
29/07:30pm 14.3 12.1 6.2 58 3.9 S 7 7 4 4 1025.0 1025.0 0.0
29/07:00pm 15.3 13.6 5.8 53 4.5 S 4 6 2 3 1025.0 1025.0 0.0
29/06:30pm 17.2 14.5 5.5 46 5.6 S 9 9 5 5 1024.8 1024.8 0.0
29/06:00pm 18.2 16.1 5.8 44 6.0 SSW 6 9 3 5 1024.9 1024.9 0.0
29/05:30pm 18.8 15.6 6.9 46 5.9 SSW 13 15 7 8 1024.8 1024.8 0.0
29/05:00pm 21.4 18.2 6.9 39 7.4 SW 13 17 7 9 1024.8 1024.8 0.0
29/04:30pm 23.0 20.0 7.9 38 7.9 WSW 13 15 7 8 1024.7 1024.7 0.0
29/04:00pm 23.6 20.2 7.7 36 8.4 W 15 17 8 9 1024.8 1024.8 0.0
29/03:30pm 23.8 21.3 8.2 37 8.2 WSW 11 17 6 9 1024.9 1024.9 0.0
29/03:00pm 24.0 21.4 9.2 39 8.0 WSW 13 17 7 9 1025.1 1025.1 0.0
29/02:30pm 23.7 20.7 9.3 40 7.7 WSW 15 20 8 11 1025.4 1025.4 0.0
29/02:00pm 23.6 20.8 9.9 42 7.5 W 15 20 8 11 1025.7 1025.7 0.0
29/01:30pm 23.9 21.8 9.9 41 7.6 W 11 19 6 10 1026.0 1026.0 0.0
29/01:00pm 24.1 21.9 9.3 39 8.0 WNW 11 17 6 9 1026.3 1026.3 0.0
29/12:30pm 23.9 21.1 7.1 34 8.7 N 11 17 6 9 1026.9 1026.9 0.0
29/12:00pm 24.1 21.2 8.1 36 8.4 N 13 19 7 10 1027.5 1027.5 0.0
29/11:30am 23.3 20.6 7.4 36 8.2 N 11 15 6 8 1028.0 1028.0 0.0
29/11:00am 22.3 20.7 10.1 46 6.6 N 9 15 5 8 1028.3 1028.3 0.0
29/10:30am 20.0 18.6 9.0 49 5.8 W 6 9 3 5 1028.5 1028.5 0.0
29/10:00am 18.0 16.9 10.1 60 4.2 WSW 6 9 3 5 1028.5 1028.5 0.0
29/09:30am 16.1 15.3 9.8 66 3.3 WSW 4 7 2 4 1028.6 1028.6 0.0
29/09:00am 13.8 13.4 8.4 70 2.7 CALM 0 0 0 0 1028.7 1028.7 0.0
29/08:30am 11.2 10.2 8.8 85 1.2 WSW 4 6 2 3 1028.7 1028.7 0.0
29/08:00am 9.5 9.0 7.8 89 0.8 CALM 0 0 0 0 1028.6 1028.6 0.0
29/07:30am 6.5 5.5 5.6 94 0.4 CALM 0 0 0 0 1028.5 1028.5 0.0
29/07:00am 5.4 3.4 4.5 94 0.4 N 4 6 2 3 1028.4 1028.4 0.0
29/06:30am 5.5 3.5 4.5 93 0.4 NNE 4 6 2 3 1028.4 1028.4 0.0
29/06:00am 6.4 5.4 5.7 95 0.3 CALM 0 0 0 0 1028.1 1028.1 0.0
29/05:30am 6.2 3.5 5.5 95 0.3 WNW 9 11 5 6 1027.8 1027.8 0.0
29/05:02am 6.4 5.4 5.7 95 0.3 CALM 0 0 0 0 1027.5 1027.5 0.0
29/05:00am 6.7 5.8 6.0 95 0.3 CALM 0 0 0 0 1027.5 1027.5 0.0
29/04:30am 7.1 6.3 6.4 95 0.3 CALM 0 0 0 0 1027.5 1027.5 0.0
29/04:15am 7.4 5.5 6.7 95 0.3 WSW 6 6 3 3 1027.6 1027.6 0.0
29/04:00am 6.7 4.5 5.5 92 0.5 WSW 6 7 3 4 1027.5 1027.5 0.0
29/03:30am 7.1 4.8 5.7 91 0.6 W 7 9 4 5 1027.4 1027.4 0.0
29/03:00am 7.8 6.6 6.4 91 0.6 W 2 7 1 4 1027.3 1027.3 0.0
29/02:30am 9.0 6.6 7.0 87 0.9 NW 9 11 5 6 1027.3 1027.3 0.0
29/02:00am 8.9 7.2 5.8 81 1.4 NNE 4 9 2 5 1027.6 1027.6 0.0
29/01:30am 10.9 9.8 6.8 76 1.9 NE 2 6 1 3 1027.8 1027.8 0.0
29/01:00am 14.3 12.6 8.5 68 2.9 ENE 7 11 4 6 1027.9 1027.9 0.0
29/12:30am 9.9 8.0 6.8 81 1.4 E 6 7 3 4 1028.0 1028.0 0.0
29/12:00am 10.6 8.9 7.7 82 1.4 NNW 6 7 3 4 1028.0 1028.0 0.0
 
Date/Time
CST
Temp
°C
App
Temp
°C
Dew
Point
Rel
Hum
%
Delta-T
°C
Wind Press
QNH
hPa
Press
MSL
hPa
Rain
since 9 am
mm
Dir
 
Spd
km/h
Gust
km/h
Spd
kts
Gust
kts
28/11:30pm 10.1 8.5 7.9 86 1.1 NNW 6 7 3 4 1028.0 1028.0 0.0
28/11:00pm 10.4 8.8 7.8 84 1.3 NNE 6 7 3 4 1028.0 1028.0 0.0
28/10:30pm 10.3 9.2 7.0 80 1.5 ENE 2 6 1 3 1028.2 1028.2 0.0
28/10:00pm 11.7 10.2 8.4 80 1.6 NNE 6 7 3 4 1028.2 1028.2 0.0
28/09:30pm 11.8 11.5 8.5 80 1.6 CALM 0 6 0 3 1028.2 1028.2 0.0
28/09:00pm 13.3 13.0 8.8 74 2.2 CALM 0 0 0 0 1028.2 1028.2 0.0
28/08:30pm 12.6 11.1 8.3 75 2.1 S 6 7 3 4 1028.1 1028.1 0.0
28/08:00pm 11.4 10.0 7.3 76 2.0 SE 4 7 2 4 1027.8 1027.8 0.0
28/07:30pm 12.4 10.3 6.7 68 2.7 ESE 7 7 4 4 1027.5 1027.5 0.0
28/07:00pm 15.1 14.7 8.1 63 3.5 CALM 0 0 0 0 1027.3 1027.3 0.0
28/06:30pm 15.0 13.4 8.0 63 3.5 S 6 7 3 4 1027.2 1027.2 0.0
28/06:00pm 17.2 15.4 7.8 54 4.7 S 7 7 4 4 1027.1 1027.1 0.0
28/05:30pm 18.9 17.0 9.1 53 5.1 SW 9 11 5 6 1027.0 1027.0 0.0
28/05:00pm 19.9 17.6 8.9 49 5.8 SSW 11 13 6 7 1027.0 1027.0 0.0
28/04:30pm 21.1 18.2 8.0 43 6.8 WSW 13 17 7 9 1027.1 1027.1 0.0
28/04:00pm 21.7 18.2 8.6 43 6.9 WSW 17 20 9 11 1026.9 1026.9 0.0
28/03:30pm 22.6 19.6 9.4 43 7.1 W 15 20 8 11 1026.7 1026.7 0.0
28/03:00pm 22.9 19.8 9.0 41 7.4 W 15 19 8 10 1026.6 1026.6 0.0
28/02:30pm 23.0 20.6 8.7 40 7.6 SW 11 15 6 8 1026.8 1026.8 0.0
28/02:00pm 23.1 20.4 9.1 41 7.5 W 13 22 7 12 1027.0 1027.0 0.0
28/01:30pm 23.3 20.4 6.6 34 8.5 N 11 17 6 9 1027.2 1027.2 0.0
28/01:00pm 23.0 20.1 6.7 35 8.4 W 11 17 6 9 1027.6 1027.6 0.0
28/12:30pm 22.6 19.9 7.2 37 7.9 NNW 11 15 6 8 1028.0 1028.0 0.0
28/12:00pm 22.8 20.5 7.4 37 8.0 NNW 9 15 5 8 1028.3 1028.3 0.0
28/11:30am 22.2 18.5 6.4 36 8.0 NNE 15 20 8 11 1028.5 1028.5 0.0
28/11:00am 21.8 20.0 9.3 45 6.7 N 9 17 5 9 1028.7 1028.7 0.0
28/10:30am 20.3 20.2 10.7 54 5.2 NNW 2 7 1 4 1028.9 1028.9 0.0
28/10:00am 17.9 18.1 10.5 62 4.0 CALM 0 0 0 0 1029.0 1029.0 0.0
28/09:30am 15.0 14.7 8.7 66 3.2 CALM 0 0 0 0 1029.2 1029.2 0.0
28/09:00am 13.6 12.9 8.4 71 2.6 E 2 6 1 3 1029.3 1029.3 0.0
28/08:30am 11.7 10.5 8.2 79 1.7 NE 4 7 2 4 1029.4 1029.4 0.0
28/08:00am 8.9 8.4 7.7 92 0.6 CALM 0 0 0 0 1029.5 1029.5 0.0
28/07:30am 5.9 4.8 5.3 96 0.3 CALM 0 0 0 0 1029.1 1029.1 0.0
28/07:26am 5.9 4.8 5.3 96 0.3 CALM 0 0 0 0 1029.0 1029.0 0.0
28/07:12am 5.0 3.8 4.4 96 0.3 CALM 0 0 0 0 1028.8 1028.8 0.0
28/07:00am 3.8 2.3 3.2 96 0.2 CALM 0 0 0 0 1028.7 1028.7 0.0
28/06:55am 4.5 3.2 3.9 96 0.3 CALM 0 0 0 0 1028.5 1028.5 0.0
28/06:30am 4.3 2.9 3.7 96 0.2 CALM 0 0 0 0 1028.3 1028.3 0.0
28/06:13am 4.8 3.5 4.2 96 0.3 CALM 0 0 0 0 1028.1 1028.1 0.0
28/06:00am 5.1 3.9 4.5 96 0.3 CALM 0 0 0 0 1027.8 1027.8 0.0
28/05:30am 5.6 4.5 5.0 96 0.3 CALM 0 0 0 0 1027.8 1027.8 0.0
28/05:02am 5.9 4.8 5.3 96 0.3 CALM 0 0 0 0 1027.7 1027.7 0.0
28/05:00am 5.8 4.7 5.2 96 0.3 CALM 0 0 0 0 1027.7 1027.7 0.0
28/04:30am 4.9 3.6 4.0 94 0.4 CALM 0 0 0 0 1027.6 1027.6 0.0
28/04:11am 5.3 4.0 4.3 93 0.4 CALM 0 0 0 0 1027.5 1027.5 0.0
28/04:00am 5.7 4.5 4.7 93 0.4 CALM 0 0 0 0 1027.4 1027.4 0.0
28/03:30am 6.2 5.1 5.0 92 0.5 CALM 0 0 0 0 1027.3 1027.3 0.0
28/03:00am 5.9 4.0 5.0 94 0.4 SW 4 7 2 4 1027.5 1027.5 0.0
28/02:30am 6.3 3.9 5.1 92 0.5 W 7 11 4 6 1027.7 1027.7 0.0
28/02:00am 7.7 6.8 6.0 89 0.8 CALM 0 0 0 0 1027.7 1027.7 0.0
28/01:30am 6.9 5.9 5.5 91 0.6 CALM 0 0 0 0 1027.9 1027.9 0.0
28/01:00am 7.2 6.2 5.5 89 0.8 CALM 0 0 0 0 1028.1 1028.1 0.0
28/12:30am 7.8 6.2 6.4 91 0.6 WSW 4 7 2 4 1028.0 1028.0 0.0
28/12:00am 7.3 4.9 5.3 87 0.9 WSW 7 7 4 4 1028.0 1028.0 0.0
 
Date/Time
CST
Temp
°C
App
Temp
°C
Dew
Point
Rel
Hum
%
Delta-T
°C
Wind Press
QNH
hPa
Press
MSL
hPa
Rain
since 9 am
mm
Dir
 
Spd
km/h
Gust
km/h
Spd
kts
Gust
kts
27/11:30pm 7.3 5.9 5.3 87 0.9 WNW 2 9 1 5 1028.1 1028.1 0.0
27/11:00pm 8.3 7.3 5.6 83 1.2 CALM 0 0 0 0 1028.2 1028.2 0.0
27/10:30pm 9.5 7.3 6.2 80 1.5 N 7 9 4 5 1028.1 1028.1 0.0
27/10:00pm 9.8 7.9 6.7 81 1.5 NE 6 9 3 5 1028.0 1028.0 0.0
27/09:30pm 10.3 8.4 6.5 77 1.8 ENE 6 7 3 4 1028.0 1028.0 0.0
27/09:00pm 11.1 9.3 7.0 76 1.9 ENE 6 7 3 4 1027.8 1027.8 0.0
27/08:30pm 11.4 10.6 6.7 73 2.2 CALM 0 0 0 0 1027.8 1027.8 0.0
27/08:00pm 12.0 11.4 7.3 73 2.3 CALM 0 0 0 0 1027.6 1027.6 0.0
27/07:30pm 12.4 11.5 6.2 66 2.9 CALM 0 0 0 0 1027.4 1027.4 0.0
27/07:00pm 13.0 10.3 5.7 61 3.4 S 9 11 5 6 1027.1 1027.1 0.0
27/06:30pm 14.6 12.3 5.7 55 4.2 SSW 7 9 4 5 1026.7 1026.7 0.0
27/06:00pm 15.2 12.1 5.7 53 4.5 SSW 11 11 6 6 1026.5 1026.5 0.0
27/05:30pm 16.2 14.0 7.9 58 4.2 SSW 9 13 5 7 1026.2 1026.2 0.0
27/05:00pm 18.6 16.4 8.0 50 5.4 SW 9 13 5 7 1026.1 1026.1 0.0
27/04:30pm 19.6 17.0 7.7 46 6.1 SW 11 15 6 8 1025.8 1025.8 0.0
27/04:00pm 19.7 15.4 6.8 43 6.5 WSW 19 22 10 12 1025.7 1025.7 0.0
27/03:30pm 20.1 15.8 7.1 43 6.6 W 19 24 10 13 1025.7 1025.7 0.0
27/03:00pm 21.0 18.5 8.0 43 6.7 W 11 17 6 9 1025.5 1025.5 0.0
27/02:30pm 20.8 19.0 7.8 43 6.7 W 7 13 4 7 1025.5 1025.5 0.0
27/02:00pm 20.8 18.3 8.1 44 6.6 W 11 17 6 9 1025.7 1025.7 0.0

Other Formats:

Comma delimited format used in spreadsheet applications
http://www.bom.gov.au/fwo/IDS60801/IDS60801.95677.axf

JavaScript Object Notation format (JSON) in row-major order
http://www.bom.gov.au/fwo/IDS60801/IDS60801.95677.json